1508310000.51,9739,17.38,74404.5,11.25,-27.13,-29.13,0,*70
1508310001.76,9740,17.38,74404.8,11.27,-27.93,-30.01,0,*7F
1508310002.99,9741,17.38,74406.5,11.27,-27.55,-29.61,0,*7A
1508310004.18,9742,17.38,74404.8,11.29,-27.71,-29.79,0,*78
1508310005.43,9743,17.38,74406.3,11.25,-27.35,-29.29,0,*70
1508310006.65,9744,17.38,74404.0,11.27,-27.03,-29.07,0,*7C
1508310007.92,9745,17.38,74406.3,11.31,-27.19,-29.17,0,*70
1508310009.17,9746,17.38,74404.5,11.29,-26.93,-28.91,0,*76
1508310010.37,9747,17.38,74404.5,11.29,-27.77,-29.79,0,*7B
1508310011.63,9748,17.38,74404.8,11.31,-27.67,-29.73,0,*76
1508310012.85,9749,17.38,74404.0,11.31,-27.03,-29.07,0,*76
1508310014.09,9750,17.38,74400.8,11.35,-27.45,-29.57,0,*7D
1508310015.34,9751,17.38,74406.0,11.31,-27.03,-29.01,0,*79
1508310016.57,9752,17.38,74406.3,11.31,-26.87,-28.85,0,*7A
1508310017.85,9753,17.38,74400.5,11.31,-26.55,-28.59,0,*75
1508310019.1,9754,17.38,74404.3,11.31,-26.87,-28.91,0,*79
1508310020.33,9755,17.38,74400.5,11.35,-27.13,-29.13,0,*7B
1508310021.62,9756,17.38,74406.5,11.37,-26.77,-28.63,0,*7F
1508310022.84,9757,17.38,74406.8,11.35,-27.03,-29.01,0,*7B
1508310024.05,9758,17.38,74406.8,11.39,-27.07,-29.07,0,*7A
1508310025.3,9759,17.38,74406.3,11.37,-27.35,-29.23,0,*72
1508310026.55,9760,17.38,74404.5,11.37,-26.49,-28.47,0,*71
1508310027.78,9761,17.38,74404.8,11.39,-26.39,-28.43,0,*7D
1508310029.04,9762,17.38,74410.5,11.39,-26.97,-28.91,0,*75
1508310030.27,9763,17.38,74406.3,11.41,-27.07,-28.97,0,*75
1508310031.49,9764,17.38,74404.8,11.39,-27.13,-29.13,0,*75
1508310032.75,9765,17.38,74406.0,11.41,-27.61,-29.79,0,*72
1508310033.96,9766,17.38,74404.3,11.41,-27.13,-29.07,0,*7D
1508310035.23,9767,17.38,74404.3,11.41,-26.93,-28.79,0,*7D
1508310036.45,9768,17.38,74406.0,11.39,-26.39,-28.31,0,*71
1508310037.69,9769,17.38,74406.3,11.41,-26.61,-28.47,0,*73
1508310038.94,9770,17.38,74406.0,11.41,-26.87,-28.79,0,*7E
1508310040.16,9771,17.38,74404.0,11.45,-27.29,-29.23,0,*70
1508310041.42,9772,17.38,74402.3,11.43,-26.81,-28.91,0,*7E
1508310042.65,9773,17.38,74406.0,11.45,-26.49,-28.53,0,*73
1508310043.9,9774,17.38,74406.3,11.45,-26.61,-28.63,0,*7D
1508310045.18,9775,17.38,74406.3,11.45,-26.13,-28.05,0,*79
1508310046.46,9776,17.38,74406.0,11.45,-26.17,-28.21,0,*78
1508310047.74,9777,17.38,74404.5,11.45,-26.17,-28.05,0,*7F
1508310049.02,9778,17.38,74404.0,11.49,-26.29,-28.25,0,*73
1508310050.22,9779,17.38,74404.0,11.47,-26.87,-28.85,0,*72
1508310051.47,9780,17.38,74404.0,11.49,-26.97,-28.97,0,*78
1508310052.73,9781,17.38,74406.0,11.47,-26.97,-29.17,0,*7E
1508310054.0,9782,17.38,74404.0,11.49,-26.77,-28.79,0,*74
1508310055.26,9783,17.38,74404.5,11.49,-26.71,-28.75,0,*7F
1508310056.49,9784,17.38,74406.5,11.49,-26.39,-28.31,0,*74
1508310057.69,9785,17.38,74406.3,11.51,-26.39,-28.37,0,*7A
1508310058.94,9786,17.38,74400.5,11.53,-26.55,-28.53,0,*73
1508310060.19,9787,17.38,74404.8,11.53,-26.55,-28.69,0,*7B
1508310061.44,9788,17.38,74400.0,11.53,-27.39,-29.57,0,*73
1508310062.66,9789,17.38,74402.5,11.53,-27.07,-29.07,0,*7A
1508310063.91,9790,17.38,74402.8,11.51,-27.39,-29.39,0,*70
1508310065.16,9791,17.38,74406.8,11.53,-26.93,-28.85,0,*74
1508310066.41,9792,17.38,74404.8,11.53,-26.71,-28.69,0,*79
1508310067.69,9793,17.38,74406.0,11.57,-26.29,-28.21,0,*7D
1508310068.91,9794,17.38,74406.3,11.57,-26.61,-28.53,0,*73
1508310070.16,9795,17.38,74404.8,11.57,-26.97,-28.85,0,*70
1508310071.41,9796,17.38,74402.3,11.59,-26.77,-28.75,0,*7C
1508310072.66,9797,17.38,74404.0,11.57,-27.51,-29.51,0,*71
1508310073.91,9798,17.38,74404.8,11.57,-28.05,-30.27,0,*79
1508310075.16,9799,17.38,74406.8,11.57,-28.05,-30.23,0,*7C
1508310076.41,9800,17.38,74404.5,11.57,-28.05,-29.95,0,*76
1508310077.67,9801,17.38,74404.3,11.57,-27.61,-29.57,0,*74
1508310078.92,9802,17.38,74406.0,11.53,-27.51,-29.39,0,*78
1508310080.14,9803,17.38,74404.5,11.57,-27.29,-29.23,0,*79
1508310081.36,9804,17.38,74402.5,11.53,-27.07,-29.07,0,*70
1508310082.62,9805,17.38,74406.8,11.53,-27.23,-29.13,0,*72
1508310083.85,9806,17.38,74402.0,11.53,-27.07,-29.23,0,*74
1508310085.09,9807,17.38,74404.3,11.57,-27.67,-29.39,0,*7C
1508310086.34,9808,17.38,74404.5,11.57,-27.07,-29.01,0,*7E
1508310087.62,9809,17.38,74408.5,11.53,-26.77,-28.75,0,*7F
1508310088.83,9810,17.38,74406.0,11.59,-27.13,-29.13,0,*7F
1508310090.08,9811,17.38,74406.3,11.59,-27.45,-29.35,0,*79
1508310091.33,9812,17.38,74404.8,11.57,-28.21,-30.27,0,*72
1508310092.58,9813,17.38,74400.8,11.57,-27.83,-29.57,0,*7B
1508310093.83,9814,17.38,74400.8,11.57,-28.21,-30.27,0,*74
1508310095.05,9815,17.38,74402.3,11.57,-27.89,-29.83,0,*7E
1508310096.27,9816,17.38,74406.0,11.57,-27.13,-29.07,0,*72
1508310097.54,9817,17.38,74406.0,11.53,-26.71,-28.43,0,*73
1508310098.82,9818,17.38,74402.8,11.53,-26.33,-28.25,0,*7A
1508310100.1,9819,17.38,74404.3,11.57,-26.97,-29.01,0,*76
1508310101.33,9820,17.38,74404.3,11.59,-26.93,-28.85,0,*7B
1508310102.55,9821,17.38,74404.0,11.59,-27.07,-29.01,0,*7B
1508310103.82,9822,17.38,74400.8,11.57,-27.83,-29.89,0,*7A
1508310105.07,9823,17.38,74402.5,11.59,-27.45,-29.29,0,*75
1508310106.29,9824,17.38,74402.3,11.59,-26.97,-28.97,0,*78
1508310107.56,9825,17.38,74402.8,11.57,-27.35,-29.39,0,*7B
1508310108.79,9826,17.38,74400.0,11.59,-27.61,-29.61,0,*7A
1508310110.05,9827,17.38,74400.8,11.59,-27.61,-29.51,0,*78
1508310111.32,9828,17.38,74400.8,11.57,-27.45,-29.39,0,*71
1508310112.58,9829,17.38,74402.8,11.59,-27.61,-29.51,0,*76
1508310113.78,9830,17.38,74402.8,11.59,-27.77,-29.67,0,*7C
1508310115.03,9831,17.38,74402.3,11.57,-27.89,-29.89,0,*72
1508310116.25,9832,17.38,74396.3,11.59,-28.25,-30.23,0,*7E
1508310117.53,9833,17.38,74400.8,11.57,-27.99,-29.89,0,*71
1508310118.81,9834,17.44,74402.3,11.57,-27.45,-29.35,0,*70
1508310120.03,9835,17.38,74402.0,11.57,-27.67,-29.83,0,*7C
1508310121.3,9836,17.38,74400.3,11.57,-27.35,-29.35,0,*75
1508310122.58,9837,17.38,74402.3,11.57,-27.45,-29.35,0,*73
1508310123.8,9838,17.38,74400.5,11.57,-27.71,-29.57,0,*7F
1508310125.05,9839,17.38,74400.5,11.57,-27.83,-29.83,0,*7A
1508310126.27,9840,17.38,74400.0,11.53,-27.89,-29.79,0,*7F
1508310127.51,9841,17.44,74402.3,11.53,-27.51,-29.39,0,*7F
1508310128.76,9842,17.44,74400.3,11.53,-26.87,-28.75,0,*7F
1508310130.01,9843,17.38,74402.3,11.53,-26.77,-28.69,0,*7C
1508310131.27,9844,17.38,74402.8,11.59,-26.81,-28.63,0,*72
1508310132.5,9845,17.38,74398.3,11.59,-26.97,-28.85,0,*7C
1508310133.77,9846,17.38,74400.0,11.61,-26.81,-28.75,0,*7C
1508310135.04,9847,17.38,74400.8,11.61,-26.93,-28.75,0,*7E
1508310136.3,9848,17.38,74398.3,11.59,-26.81,-28.63,0,*7E
1508310137.53,9849,17.38,74402.0,11.61,-27.07,-28.97,0,*70
1508310138.79,9850,17.44,74402.3,11.61,-27.61,-29.45,0,*76
1508310140.03,9851,17.44,74400.5,11.59,-27.23,-29.13,0,*79
1508310141.31,9852,17.38,74398.8,11.61,-27.61,-29.51,0,*71
1508310142.54,9853,17.38,74398.8,11.61,-27.77,-29.61,0,*74
1508310143.79,9854,17.44,74400.3,11.61,-27.99,-29.83,0,*7F
1508310145.04,9855,17.38,74400.3,11.61,-27.67,-29.51,0,*70
1508310146.27,9856,17.38,74400.8,11.59,-27.29,-29.29,0,*7D
1508310147.51,9857,17.38,74400.3,11.61,-27.07,-28.79,0,*7F
1508310148.79,9858,17.44,74404.0,11.61,-26.81,-28.75,0,*73
1508310150.02,9859,17.38,74400.5,11.61,-27.77,-29.67,0,*78
1508310151.26,9860,17.44,74400.5,11.63,-27.45,-29.13,0,*72
1508310152.47,9861,17.44,74400.8,11.63,-27.19,-29.07,0,*7F
1508310153.67,9862,17.38,74400.5,11.65,-27.89,-29.79,0,*7A
1508310154.87,9863,17.38,74402.0,11.63,-28.53,-30.45,0,*72
1508310156.13,9864,17.44,74400.3,11.61,-28.31,-30.17,0,*74
1508310157.37,9865,17.44,74402.8,11.59,-28.47,-30.51,0,*7D
1508310158.57,9866,17.44,74402.5,11.59,-27.77,-29.61,0,*79
1508310159.8,9867,17.38,74402.8,11.59,-27.67,-29.51,0,*7A
1508310161.05,9868,17.44,74402.8,11.61,-28.15,-29.89,0,*71
1508310162.34,9869,17.44,74404.3,11.61,-27.61,-29.35,0,*7B
1508310163.58,9870,17.44,74402.3,11.61,-27.23,-28.97,0,*7C
1508310164.84,9871,17.44,74400.5,11.61,-27.61,-29.61,0,*73
1508310166.1,9872,17.38,74398.8,11.61,-28.75,-30.67,0,*74
1508310167.32,9873,17.44,74400.8,11.59,-29.01,-31.05,0,*79
1508310168.52,9874,17.44,74398.5,11.59,-28.31,-30.23,0,*79
1508310169.77,9875,17.44,74402.3,11.57,-28.53,-30.55,0,*73
1508310170.99,9876,17.44,74400.5,11.57,-28.31,-30.23,0,*75
1508310172.24,9877,17.44,74402.3,11.57,-28.69,-30.55,0,*78
1508310173.47,9878,17.44,74402.8,11.57,-29.07,-31.17,0,*79
1508310174.72,9879,17.44,74404.5,11.53,-29.13,-31.17,0,*79
1508310175.98,9880,17.44,74402.0,11.51,-28.21,-30.01,0,*7B
1508310177.19,9881,17.44,74402.8,11.51,-28.37,-30.33,0,*7C
1508310178.44,9882,17.44,74400.8,11.53,-27.93,-29.89,0,*75
1508310179.7,9883,17.44,74402.5,11.51,-28.25,-30.51,0,*79
1508310180.93,9884,17.44,74398.0,11.51,-29.45,-31.57,0,*7E
1508310182.2,9885,17.44,74402.8,11.49,-28.59,-30.55,0,*79
1508310183.47,9886,17.44,74402.3,11.49,-28.59,-30.55,0,*7A
1508310184.72,9887,17.44,74398.3,11.47,-28.47,-30.39,0,*70
1508310185.96,9888,17.44,74402.8,11.47,-27.83,-29.73,0,*7E
1508310187.22,9889,17.44,74402.8,11.49,-27.71,-29.51,0,*7C
1508310188.46,9890,17.44,74402.0,11.49,-28.09,-29.95,0,*7C
1508310189.71,9891,17.44,74400.0,11.49,-27.83,-29.67,0,*7D
1508310190.96,9892,17.44,74400.8,11.49,-28.75,-30.83,0,*7A
1508310192.24,9893,17.44,74402.0,11.49,-28.59,-30.39,0,*74
1508310193.46,9894,17.44,74400.8,11.49,-27.71,-29.45,0,*75
1508310194.73,9895,17.44,74402.3,11.49,-27.45,-29.17,0,*74
1508310195.97,9896,17.44,74402.8,11.49,-27.99,-29.79,0,*7E
1508310197.17,9897,17.44,74398.8,11.51,-27.77,-29.57,0,*7A
1508310198.37,9898,17.44,74402.3,11.47,-27.51,-29.23,0,*75
1508310199.64,9899,17.44,74404.5,11.49,-26.77,-28.75,0,*7D
1508310200.86,9900,17.44,74400.0,11.51,-26.87,-28.75,0,*7A
1508310202.11,9901,17.44,74402.8,11.53,-26.77,-28.69,0,*7B
1508310203.37,9902,17.44,74402.8,11.53,-26.49,-28.25,0,*7D
1508310204.62,9903,17.44,74400.3,11.53,-26.71,-28.69,0,*7F
1508310205.85,9904,17.44,74400.8,11.53,-26.65,-28.37,0,*76
1508310207.12,9905,17.44,74398.3,11.53,-26.71,-28.59,0,*7A
1508310208.34,9906,17.44,74404.0,11.57,-26.61,-28.53,0,*76
1508310209.55,9907,17.44,74402.3,11.59,-26.39,-28.31,0,*70
1508310210.77,9908,17.44,74404.3,11.59,-26.61,-28.47,0,*73
1508310212.02,9909,17.44,74402.5,11.61,-27.29,-29.13,0,*74
1508310213.25,9910,17.44,74402.8,11.63,-27.61,-29.45,0,*71
1508310214.53,9911,17.44,74404.5,11.61,-27.23,-29.01,0,*74
1508310215.8,9912,17.44,74400.0,11.61,-27.45,-29.35,0,*70
1508310217.02,9913,17.44,74402.3,11.61,-27.77,-29.79,0,*78
1508310218.25,9914,17.44,74402.0,11.61,-27.77,-29.61,0,*76
1508310219.5,9915,17.44,74402.8,11.61,-27.67,-29.35,0,*77
1508310220.77,9916,17.44,74402.0,11.61,-27.45,-29.29,0,*79
1508310222.04,9917,17.44,74402.5,11.61,-26.93,-28.79,0,*76
1508310223.3,9918,17.44,74398.8,11.61,-26.65,-28.47,0,*7D
1508310224.55,9919,17.44,74402.3,11.61,-27.23,-28.85,0,*71
1508310225.78,9920,17.44,74404.5,11.63,-26.49,-28.25,0,*7E
1508310227.0,9921,17.44,74404.3,11.65,-26.55,-28.53,0,*75
1508310228.2,9922,17.44,74406.0,11.65,-26.61,-28.53,0,*71
1508310229.4,9923,17.44,74406.8,11.65,-27.07,-28.97,0,*79
1508310230.64,9924,17.44,74406.8,11.65,-27.39,-29.13,0,*7E
1508310231.84,9925,17.44,74400.8,11.65,-27.71,-29.61,0,*76
1508310233.11,9926,17.44,74406.0,11.67,-26.97,-28.75,0,*7A
1508310234.36,9927,17.44,74400.5,11.65,-26.93,-28.79,0,*71
1508310235.61,9928,17.44,74402.0,11.67,-28.47,-30.45,0,*7D
1508310236.84,9929,17.5,74408.0,11.65,-27.61,-29.45,0,*7D
1508310238.08,9930,17.44,74402.0,11.65,-28.69,-30.77,0,*7B
1508310239.33,9931,17.44,74400.8,11.65,-28.59,-30.51,0,*7D
1508310240.61,9932,17.44,74400.3,11.61,-28.09,-30.17,0,*7D
1508310241.83,9933,17.44,74400.0,11.65,-27.77,-29.73,0,*74
1508310243.05,9934,17.44,74398.8,11.63,-27.23,-29.07,0,*77
1508310244.31,9935,17.44,74402.8,11.63,-26.77,-28.59,0,*7C
1508310245.56,9936,17.44,74400.0,11.63,-26.93,-28.75,0,*7B
1508310246.81,9937,17.44,74402.3,11.65,-26.77,-28.59,0,*78
1508310248.03,9938,17.44,74404.3,11.65,-27.03,-28.91,0,*71
1508310249.23,9939,17.44,74404.5,11.65,-26.87,-28.69,0,*7A
1508310250.48,9940,17.44,74404.8,11.67,-27.51,-29.39,0,*78
1508310251.67,9941,17.44,74404.3,11.65,-28.15,-30.23,0,*77
1508310252.91,9942,17.44,74408.5,11.65,-27.61,-29.57,0,*73
1508310254.16,9943,17.44,74404.3,11.65,-29.29,-31.39,0,*71
1508310255.36,9944,17.44,74404.3,11.65,-28.97,-31.01,0,*79
1508310256.56,9945,17.44,74406.0,11.63,-28.53,-30.45,0,*77
1508310257.77,9946,17.44,74402.0,11.63,-28.37,-30.27,0,*72
1508310259.05,9947,17.44,74408.3,11.61,-29.01,-30.95,0,*7C
1508310260.3,9948,17.5,74406.5,11.61,-28.75,-30.67,0,*7C
1508310261.58,9949,17.44,74402.3,11.61,-29.17,-31.11,0,*78
1508310262.84,9950,17.44,74400.5,11.61,-28.15,-30.17,0,*74
1508310264.06,9951,17.44,74400.0,11.59,-27.55,-29.35,0,*7D
1508310265.29,9952,17.44,74402.5,11.59,-27.61,-29.45,0,*7E
1508310266.51,9953,17.44,74402.3,11.59,-27.83,-29.67,0,*73
1508310267.79,9954,17.44,74396.8,11.61,-27.99,-30.05,0,*78
1508310269.04,9955,17.44,74396.5,11.59,-28.75,-30.73,0,*7E
1508310270.29,9956,17.5,74400.5,11.59,-28.43,-30.51,0,*78
1508310271.56,9957,17.5,74402.5,11.57,-28.63,-30.55,0,*71
1508310272.83,9958,17.44,74396.8,11.57,-28.47,-30.39,0,*72
1508310274.03,9959,17.44,74396.3,11.59,-27.93,-29.83,0,*72
1508310275.27,9960,17.44,74396.0,11.57,-27.83,-29.67,0,*7D
1508310276.55,9961,17.44,74394.8,11.57,-28.05,-29.89,0,*7D
1508310277.75,9962,17.44,74394.8,11.59,-28.31,-30.27,0,*7B
1508310278.98,9963,17.44,74394.5,11.57,-28.53,-30.45,0,*74
1508310280.22,9964,17.44,74394.8,11.57,-27.83,-29.67,0,*79
1508310281.48,9965,17.44,74394.5,11.57,-27.67,-29.51,0,*77
1508310282.74,9966,17.5,74394.5,11.57,-27.35,-29.17,0,*71
1508310283.98,9967,17.44,74390.3,11.57,-27.35,-29.07,0,*71
1508310285.22,9968,17.5,74396.0,11.59,-27.23,-29.01,0,*71
1508310286.45,9969,17.44,74394.5,11.59,-27.83,-29.67,0,*7A
1508310287.67,9970,17.44,74396.0,11.59,-28.09,-29.83,0,*75
1508310288.9,9971,17.44,74392.3,11.59,-28.09,-29.83,0,*74
1508310290.13,9972,17.5,74398.8,11.59,-27.61,-29.45,0,*7C
1508310291.41,9973,17.44,74398.0,11.57,-27.45,-29.35,0,*72
1508310292.61,9974,17.44,74394.3,11.59,-27.67,-29.61,0,*7A
1508310293.83,9975,17.44,74396.3,11.57,-27.89,-29.67,0,*73
1508310295.09,9976,17.44,74398.3,11.59,-27.61,-29.35,0,*7F
1508310296.33,9977,17.5,74396.0,11.57,-27.51,-29.39,0,*7F
1508310297.59,9978,17.44,74392.5,11.59,-26.97,-28.63,0,*7B
1508310298.88,9979,17.5,74396.5,11.61,-27.61,-29.35,0,*7B
1508310300.11,9980,17.44,74394.3,11.63,-28.37,-30.17,0,*7B
1508310301.38,9981,17.44,74396.3,11.61,-27.45,-29.29,0,*77
1508310302.6,9982,17.44,74394.0,11.59,-27.55,-29.29,0,*7E
1508310303.79,9983,17.44,74394.3,11.59,-27.77,-29.61,0,*73
1508310305.02,9984,17.44,74392.8,11.61,-27.77,-29.61,0,*7F
1508310306.27,9985,17.44,74392.5,11.61,-27.67,-29.51,0,*7C
1508310307.49,9986,17.5,74398.0,11.59,-27.99,-29.79,0,*7F
1508310308.69,9987,17.44,74394.0,11.59,-27.67,-29.45,0,*70
1508310309.92,9988,17.44,74394.8,11.59,-27.67,-29.51,0,*7A
1508310311.21,9989,17.5,74396.5,11.61,-27.61,-29.35,0,*74
1508310312.49,9990,17.5,74396.3,11.61,-28.79,-30.73,0,*70
1508310313.71,9991,17.5,74400.3,11.59,-28.09,-29.79,0,*7F
1508310314.96,9992,17.5,74396.0,11.61,-28.15,-29.89,0,*75
1508310316.17,9993,17.5,74398.5,11.59,-28.31,-30.33,0,*70
1508310317.45,9994,17.5,74398.8,11.57,-28.21,-29.89,0,*71
1508310318.67,9995,17.5,74398.0,11.57,-28.37,-30.23,0,*7F
1508310319.94,9996,17.5,74396.5,11.57,-27.99,-29.73,0,*7A
1508310321.2,9997,17.5,74400.8,11.59,-28.79,-30.89,0,*79
1508310322.42,9998,17.5,74402.5,11.57,-29.23,-31.29,0,*7D
1508310323.67,9999,17.5,74400.3,11.57,-28.21,-29.95,0,*71
1508310324.9,10000,17.5,74398.8,11.53,-27.93,-29.79,0,*40
1508310326.16,10001,17.5,74400.5,11.53,-28.05,-29.61,0,*48
1508310327.39,10002,17.5,74400.3,11.53,-27.93,-29.61,0,*4B
1508310328.64,10003,17.5,74398.3,11.53,-27.03,-28.75,0,*47
1508310329.87,10004,17.5,74400.0,11.53,-27.71,-29.57,0,*44
1508310331.16,10005,17.5,74402.0,11.53,-28.25,-30.17,0,*47
1508310332.42,10006,17.5,74398.5,11.53,-28.37,-30.01,0,*40
1508310333.67,10007,17.5,74402.0,11.57,-27.19,-28.85,0,*43
1508310334.9,10008,17.5,74398.5,11.57,-26.87,-28.69,0,*48
1508310336.15,10009,17.5,74398.8,11.57,-26.81,-28.53,0,*46
1508310337.41,10010,17.5,74402.5,11.59,-26.77,-28.43,0,*48
1508310338.67,10011,17.5,74400.3,11.57,-27.67,-29.35,0,*47
1508310339.9,10012,17.5,74400.3,11.57,-27.13,-28.85,0,*4D
1508310341.14,10013,17.5,74400.3,11.59,-26.65,-28.25,0,*48
1508310342.39,10014,17.5,74400.3,11.61,-27.23,-28.85,0,*4D
1508310343.65,10015,17.5,74400.8,11.61,-26.81,-28.53,0,*4E
1508310344.88,10016,17.5,74402.3,11.63,-26.71,-28.37,0,*42
1508310346.14,10017,17.5,74402.0,11.63,-26.71,-28.59,0,*4B
1508310347.34,10018,17.5,74402.5,11.63,-27.89,-29.79,0,*41
1508310348.6,10019,17.5,74400.8,11.65,-28.05,-29.73,0,*47
1508310349.83,10020,17.5,74400.8,11.63,-27.51,-29.39,0,*4B
1508310351.05,10021,17.5,74402.5,11.63,-27.39,-29.23,0,*4F
1508310352.28,10022,17.5,74400.8,11.63,-27.51,-29.29,0,*48
1508310353.5,10023,17.5,74396.3,11.61,-27.93,-29.79,0,*40
1508310354.8,10024,17.5,74398.5,11.61,-27.61,-29.35,0,*42
1508310356.03,10025,17.5,74402.3,11.61,-27.67,-29.45,0,*42
1508310357.27,10026,17.5,74402.0,11.63,-27.07,-28.91,0,*4D
1508310358.51,10027,17.5,74396.3,11.61,-27.55,-29.29,0,*4B
1508310359.77,10028,17.5,74396.0,11.61,-26.61,-28.43,0,*4F
1508310361.0,10029,17.5,74396.0,11.63,-26.23,-28.05,0,*48
1508310362.28,10030,17.5,74396.5,11.67,-26.17,-28.05,0,*43
1508310363.56,10031,17.5,74398.3,11.67,-26.55,-28.47,0,*42
1508310364.81,10032,17.5,74402.0,11.67,-27.19,-28.85,0,*46
1508310366.04,10033,17.5,74398.8,11.65,-26.61,-28.43,0,*41
1508310367.27,10034,17.5,74396.0,11.65,-26.55,-28.53,0,*40
1508310368.5,10035,17.5,74400.5,11.69,-26.13,-27.67,0,*47
1508310369.79,10036,17.5,74398.5,11.71,-25.81,-27.61,0,*43
1508310371.02,10037,17.5,74394.8,11.71,-25.91,-27.67,0,*45
1508310372.26,10038,17.5,74398.0,11.71,-25.65,-27.51,0,*44
1508310373.5,10039,17.5,74394.5,11.71,-26.07,-27.67,0,*47
1508310374.71,10040,17.5,74396.0,11.73,-26.03,-27.71,0,*48
1508310375.97,10041,17.5,74400.3,11.75,-25.97,-27.67,0,*46
1508310377.23,10042,17.5,74396.5,11.75,-25.81,-27.71,0,*45
1508310378.48,10043,17.5,74398.8,11.79,-25.81,-27.51,0,*4A
1508310379.69,10044,17.5,74398.5,11.81,-25.91,-27.67,0,*4E
1508310380.95,10045,17.5,74396.5,11.81,-25.97,-27.61,0,*4F
1508310382.15,10046,17.5,74398.0,11.81,-26.07,-27.77,0,*41
1508310383.38,10047,17.5,74398.8,11.81,-26.45,-28.25,0,*4E
1508310384.61,10048,17.5,74400.5,11.81,-26.45,-28.25,0,*41
1508310385.82,10049,17.5,74398.5,11.81,-27.13,-28.85,0,*48
1508310387.02,10050,17.5,74402.5,11.81,-27.13,-28.85,0,*40
1508310388.25,10051,17.5,74400.8,11.85,-27.07,-28.79,0,*43
1508310389.51,10052,17.5,74400.0,11.85,-26.77,-28.59,0,*44
1508310390.8,10053,17.5,74396.3,11.87,-26.97,-28.59,0,*49
1508310392.06,10054,17.5,74396.0,11.85,-26.93,-28.59,0,*48
1508310393.29,10055,17.5,74398.3,11.85,-26.87,-28.63,0,*45
1508310394.54,10056,17.5,74396.5,11.85,-26.55,-28.25,0,*4B
1508310395.77,10057,17.5,74396.8,11.85,-26.17,-27.93,0,*4E
1508310397.01,10058,17.5,74396.0,11.87,-26.03,-27.71,0,*4A
1508310398.29,10059,17.5,74398.5,11.87,-26.13,-27.83,0,*47
1508310399.57,10060,17.5,74396.3,11.87,-26.13,-27.83,0,*4D
1508310400.81,10061,17.5,74396.8,11.89,-26.33,-28.15,0,*40
1508310402.04,10062,17.56,74402.8,11.89,-26.13,-27.89,0,*4B
1508310403.29,10063,17.5,74396.8,11.91,-26.17,-27.93,0,*4C
1508310404.52,10064,17.5,74396.0,11.89,-25.71,-27.55,0,*4B
1508310405.77,10065,17.5,74396.0,11.91,-25.97,-27.77,0,*4B
1508310406.99,10066,17.5,74394.0,11.93,-25.91,-27.61,0,*4B
1508310408.19,10067,17.5,74394.3,11.93,-26.07,-27.77,0,*41
1508310409.39,10068,17.5,74396.0,11.93,-26.07,-27.77,0,*4E
1508310410.64,10069,17.5,74396.5,11.95,-26.13,-27.77,0,*4C
1508310411.9,10070,17.5,74392.3,11.95,-26.13,-27.93,0,*4E
1508310413.13,10071,17.5,74396.3,11.95,-26.07,-27.77,0,*40
1508310414.36,10072,17.5,74394.3,11.97,-26.03,-27.89,0,*44
1508310415.63,10073,17.5,74396.3,11.97,-26.33,-28.15,0,*4C
1508310416.86,10074,17.5,74398.5,11.97,-26.39,-28.15,0,*41
1508310418.12,10075,17.5,74396.8,11.97,-26.39,-27.99,0,*4B
1508310419.38,10076,17.5,74398.3,11.99,-26.17,-27.99,0,*4A
1508310420.67,10077,17.56,74398.3,11.97,-26.33,-28.05,0,*49
1508310421.89,10078,17.5,74394.5,11.99,-26.49,-28.15,0,*44
1508310423.11,10079,17.5,74394.0,11.97,-27.03,-28.69,0,*4F
1508310424.35,10080,17.56,74396.0,11.99,-26.97,-28.69,0,*4B
1508310425.58,10081,17.56,74398.3,11.97,-27.03,-28.85,0,*4A
1508310426.84,10082,17.5,74392.8,11.97,-26.81,-28.53,0,*49
1508310428.05,10083,17.5,74394.0,11.99,-26.49,-28.15,0,*40
1508310429.32,10084,17.5,74398.3,11.99,-26.33,-27.99,0,*41
1508310430.53,10085,17.5,74394.5,11.99,-26.45,-28.15,0,*4A
1508310431.77,10086,17.5,74392.3,12.01,-26.65,-28.31,0,*4F
1508310433.03,10087,17.5,74392.8,12.01,-26.61,-28.21,0,*4B
1508310434.27,10088,17.5,74392.5,11.99,-26.65,-28.47,0,*42
1508310435.51,10089,17.56,74396.0,11.99,-26.97,-28.85,0,*40
1508310436.74,10090,17.5,74394.5,11.99,-26.97,-28.53,0,*43
1508310437.94,10091,17.5,74392.8,11.99,-27.13,-28.97,0,*47
1508310439.2,10092,17.5,74394.0,12.01,-27.03,-28.79,0,*47
1508310440.41,10093,17.5,74392.0,11.99,-27.03,-28.85,0,*47
1508310441.67,10094,17.56,74396.5,11.99,-27.61,-29.39,0,*42
1508310442.93,10095,17.5,74392.5,11.99,-27.61,-29.39,0,*43
1508310444.15,10096,17.56,74394.5,11.97,-27.55,-29.61,0,*44
1508310445.39,10097,17.56,74394.5,11.99,-27.99,-29.83,0,*47
1508310446.61,10098,17.5,74390.8,11.95,-27.13,-28.97,0,*42
1508310447.85,10099,17.56,74392.3,11.97,-27.07,-28.85,0,*47
1508310449.1,10100,17.56,74394.5,11.95,-27.03,-28.75,0,*4F
1508310450.38,10101,17.56,74394.5,11.95,-26.77,-28.43,0,*49
1508310451.61,10102,17.5,74394.3,11.99,-26.97,-28.69,0,*40
1508310452.85,10103,17.56,74392.5,11.97,-27.03,-28.85,0,*41
1508310454.07,10104,17.56,74392.8,11.97,-26.87,-28.53,0,*40
1508310455.33,10105,17.56,74394.0,11.97,-26.39,-28.21,0,*41
1508310456.56,10106,17.5,74388.8,11.97,-26.87,-28.53,0,*42
1508310457.82,10107,17.56,74394.5,11.97,-26.33,-27.93,0,*4F
1508310459.02,10108,17.56,74390.8,11.99,-26.61,-28.37,0,*48
1508310460.28,10109,17.5,74390.3,11.99,-26.77,-28.47,0,*49
1508310461.56,10110,17.56,74392.3,11.97,-26.81,-28.43,0,*42
1508310462.82,10111,17.56,74392.0,11.99,-26.77,-28.47,0,*40
1508310464.03,10112,17.56,74390.5,11.99,-26.49,-28.15,0,*49
1508310465.27,10113,17.5,74390.5,12.01,-26.65,-28.37,0,*44
1508310466.51,10114,17.56,74392.0,12.01,-27.03,-28.85,0,*4B
1508310467.76,10115,17.5,74390.5,12.01,-27.03,-28.79,0,*49
1508310469.01,10116,17.56,74392.8,12.05,-26.87,-28.63,0,*48
1508310470.3,10117,17.56,74392.0,12.01,-26.97,-28.79,0,*47
1508310471.55,10118,17.56,74392.3,12.01,-27.45,-29.23,0,*48
1508310472.78,10119,17.5,74388.5,12.01,-27.29,-28.97,0,*4D
1508310474.04,10120,17.56,74392.8,12.01,-27.51,-29.17,0,*41
1508310475.27,10121,17.56,74390.8,12.01,-27.03,-28.85,0,*4D
1508310476.53,10122,17.56,74390.8,12.01,-28.21,-30.23,0,*44
1508310477.74,10123,17.56,74394.3,11.99,-27.67,-29.57,0,*41
1508310478.97,10124,17.56,74392.5,11.97,-27.03,-28.69,0,*46
1508310480.24,10125,17.56,74394.3,11.97,-27.23,-29.17,0,*4D
1508310481.48,10126,17.56,74390.3,11.97,-27.03,-28.85,0,*46
1508310482.71,10127,17.56,74390.5,11.97,-27.67,-29.61,0,*4E
1508310483.95,10128,17.56,74392.5,11.97,-27.35,-29.23,0,*40
1508310485.18,10129,17.56,74392.5,11.97,-27.07,-29.07,0,*46
1508310486.44,10130,17.56,74392.5,11.97,-26.97,-28.69,0,*4F
1508310487.64,10131,17.56,74394.0,11.99,-26.49,-28.37,0,*48
1508310488.9,10132,17.56,74394.8,11.97,-27.07,-28.91,0,*42
1508310490.15,10133,17.56,74396.3,11.99,-27.35,-29.17,0,*43
1508310491.36,10134,17.56,74396.0,11.99,-27.07,-28.85,0,*4F
1508310492.6,10135,17.56,74392.8,11.99,-27.61,-29.57,0,*40
1508310493.83,10136,17.56,74394.8,11.97,-27.67,-29.61,0,*4E
1508310495.08,10137,17.56,74392.8,11.97,-27.89,-29.73,0,*4C
1508310496.31,10138,17.56,74396.8,11.97,-27.71,-29.61,0,*47
1508310497.54,10139,17.56,74396.8,11.97,-27.67,-29.57,0,*44
1508310498.77,10140,17.56,74394.0,11.95,-27.29,-29.07,0,*47
1508310499.99,10141,17.56,74394.3,11.93,-27.03,-28.75,0,*4C
1508310501.25,10142,17.56,74394.5,11.95,-26.13,-27.93,0,*4E
1508310502.53,10143,17.56,74394.0,11.95,-25.75,-27.61,0,*41
1508310503.81,10144,17.56,74394.0,11.95,-26.29,-28.09,0,*4D